User: anonymous   Login
Location: Hiram
(41.3130°N, 81.1440°W)
Time: 23:08:28
(UTC-04:00)
Language:

Iridium 62 - Orbit

View from above orbital plane
View from above orbital plane
View from above satellite
View from above satellite

Ground track
Ground track

The orbit data is extracted from the following two-line orbital elements,

1 25285U 98021A   16242.44192666  .00000006  00000-0 -49554-5 0  9994
2 25285  86.4003 345.8765 0002098  97.1391 263.0044 14.34217474963208
Epoch (UTC): 29 August 2016 10:36:22
Eccentricity: 0.0002098
inclination: 86.4003°
perigee height: 776 km
apogee height: 779 km
right ascension of ascending node: 345.8765°
argument of perigee: 97.1391°
revolutions per day: 14.34217474
mean anomaly at epoch: 263.0044°
orbit number at epoch: 96320

The dashed part of the orbit path shows where the satellite is in the earth's shadow,  

DLR